Regional Weather Roundup
Issued by NWS

Home | Current Version | Previous Version | Text Only | Print | Product List | Glossary On
Versions: 1 2 3 4 5 6 7 8 9 10 11 12 13 14 15 16 17 18 19 20 21 22 23 24 25 26 27 28 29 30 31 32 33 34 35 36 37 38 39 40 41 42 43 44 45 46 47 48 49 50
000
ASUS43 KMPX 301001
RWRMN
WEATHER ROUNDUP FOR MINNESOTA
NATIONAL WEATHER SERVICE TWIN CITIES/CHANHASSEN MN
500 AM CDT FRI SEP 30 2016


NOTE: "FAIR" INDICATES FEW OR NO CLOUDS BELOW 12,000 FEET WITH NO
SIGNIFICANT WEATHER AND/OR OBSTRUCTIONS TO VISIBILITY. N/A MEANS
CURRENT SKY AND/OR WEATHER CONDITIONS ARE NOT AVAILABLE.

MNZ060>063-068>070-301100-
   Twin Cities Metro

CITY           SKY/WX    TMP DP  RH WIND       PRES   REMARKS
TWIN CITIES    CLEAR     51  48  89 N5        30.37F
ST PAUL        CLEAR     50  49  96 CALM      30.38F
CRYSTAL        FOG       48  46  93 N5        30.37S VSB 1/2
BLAINE         FOG       48  48 100 NE3       30.38S VSB 1/4
LAKEVILLE      FOG       46  46 100 CALM      30.37S VSB 1/4
EDEN PRAIRIE   CLEAR     52  49  89 N5        30.36S
LAKEVILLE      FOG       46  46 100 CALM      30.37S VSB 1/4
SOUTH ST PAUL  CLEAR     53  52  94 CALM      30.37F
LAKE ELMO      FOG       46  46 100 CALM      30.39S VSB 1
$$
MNZ001>005-007-008-013>017-022>024-027-028-301100-
   Northwest Minnesota

CITY           SKY/WX    TMP DP  RH WIND       PRES   REMARKS
BEMIDJI        CLEAR     42  42 100 E3        30.40S FOG
HALLOCK        CLEAR     48  45  87 SE9       30.34F
ROSEAU         CLEAR     43  37  81 CALM      30.39S
WARROAD        MOCLDY    48  45  87 SE5       30.40S
THIEF RVR FALL CLEAR     44  43  96 SE7       30.38F
CROOKSTON      CLEAR     48  46  93 SE8       30.36F
FOSSTON        CLEAR     45  43  93 SE5       30.38S
DETROIT LAKES  CLEAR     46  46 100 SE6       30.38F
MOORHEAD       CLEAR     48  46  93 SE7       30.35F
PARK RAPIDS    FOG       46  44  93 SE7       30.39S VSB 1/4
MAHNOMEN       FAIR      46  45  96 SE6       30.37F
$$
MNZ006-009>011-018-025>026-301100-
   North Central Minnesota

CITY           SKY/WX    TMP DP  RH WIND       PRES   REMARKS
BAUDETTE       CLOUDY    51  47  86 SE7       30.41F
FLAG ISLAND    CLOUDY    55  48  76 SE13      30.39S
INTL FALLS     PTCLDY    46  45  96 E3        30.42F
WASKISH        CLEAR     48  45  87 E5        30.41S
BIG FORK       FOG       46  46 100 CALM      30.43S VSB 1/2
LONGVILLE      FOG       46  46 100 CALM      30.41S VSB 1/2
GRAND RAPIDS   FOG       49  48  97 VRB3      30.44S VSB 1/2
ORR            CLOUDY    46  45  93 CALM      30.42F FOG
COOK           FOG       46  46 100 CALM      30.44F VSB 3/4
WALKER         CLOUDY    46  46  98 SE5       30.40S FOG
$$
MNZ012-019>021-037-301100-
   Northeast Minnesota

CITY           SKY/WX    TMP DP  RH WIND       PRES   REMARKS
DULUTH         CLOUDY    51  51 100 E8        30.43S
ELY            CLOUDY    46  46 100 CALM      30.45S
HIBBING        CLOUDY    48  48 100 SE5       30.43S FOG
EVELETH        CLOUDY    51  51  97 SE3       30.45S
DULUTH HARBOR  CLOUDY    55  54  94 NE15      30.44F
TWO HARBORS    CLOUDY    54  48  82 E6        30.43F
SILVER BAY     CLOUDY    54  52  94 CALM      30.44F
GRAND MARAIS     N/A     50  49  96 NE3       30.46S
G MARAIS ARPRT CLEAR     46  43  87 E5        30.47F
$$
MNZ029>031-032-039>041-046>048-054>057-064-301100-
   West Central Minnesota

CITY           SKY/WX    TMP DP  RH WIND       PRES   REMARKS
FERGUS FALLS   CLEAR     50  48  93 SE7       30.38F
MORRIS         CLEAR     43  43 100 E6        30.36S FOG
ALEXANDRIA     MOCLDY    48  48 100 E9        30.38F FOG
ELBOW LAKE     FAIR      48  48  98 SE7       30.37S
WADENA         FOG       43  43 100 CALM      30.38F VSB 1/4
GLENWOOD       FOG       43  43 100 E6        30.38F VSB 1/4
BENSON         CLEAR     46  45  93 SE6       30.36F
ORTONVILLE     CLEAR     45  43  93 CALM      30.35F FOG
MADISON        FOG       43  43 100 CALM      30.36S VSB 1/4
WILLMAR        FAIR      46  46 100 CALM      30.38F
$$
MNZ033>034-036-042>043-049>051-058-059-301100-
   Central Minnesota

CITY           SKY/WX    TMP DP  RH WIND       PRES   REMARKS
ST CLOUD       FOG       49  49 100 E3        30.39F VSB 1/4
SAUK CENTRE    FOG       47  47  99 E5        30.39S VSB 1/4
PAYNESVILLE    FOG       49  49 100 CALM      30.38F VSB 1/4
AITKIN         CLOUDY    54  48  82 E3        30.41S
PINE RIVER     FOG       48  48 100 CALM      30.43S VSB 1/2
BRAINERD       CLOUDY    50  50 100 E3        30.41S FOG
STAPLES        FOG       43  43 100 CALM      30.39F VSB<1/4
LONG PRAIRIE   CLOUDY    45  45 100 CALM      30.40S FOG
LITTLE FALLS   FOG       46  46 100 CALM      30.40S VSB 1/4
LITCHFIELD     RAIN      48  48 100 NE3       30.38F VSB<1/4
BUFFALO        FOG       50  48  95 NE6       30.39S VSB 1/2
MAPLE LAKE     FOG       50  50  99 NE6       30.39S VSB 1/2
HUTCHINSON     FOG       47  47 100 CALM      30.38S VSB 1
$$
MNZ037-044-045-052-053-301100-
   East Central Minnesota

CITY           SKY/WX    TMP DP  RH WIND       PRES   REMARKS
PRINCETON      FOG       52  50  93 NE3       30.40S VSB 1/2
MORA           CLOUDY    50  50 100 E3        30.42F FOG
CAMBRIDGE      CLOUDY    54  52  94 NE5       30.39S FOG
MOOSE LAKE     CLOUDY    50  46  87 E3        30.41S FOG
HINCKLEY       CLOUDY    52  52 100 NE3       30.42S
CLOQUET        CLOUDY    52  50  93 E5        30.43S FOG
MCGREGOR       CLOUDY    50  50 100 SE6       30.43S
$$
MNZ071>073-080-081-089-090-097-098-301100-
   Southwest Minnesota

CITY           SKY/WX    TMP DP  RH WIND       PRES   REMARKS
MONTEVIDEO     PTCLDY    45  45 100 S3        30.37F
GRANITE FALLS  CLEAR     44  44  98 NE3       30.38S
CANBY          CLEAR     41  40  98 CALM      30.36F FOG
MARSHALL       CLEAR     43  41  93 CALM      30.36F
REDWOOD FALLS  CLEAR     47  44  90 N3        30.36F
OLIVIA         CLEAR     43  41  93 NE5       30.36S
PIPESTONE      CLEAR     48  45  87 E3        30.34F
WINDOM         CLEAR     45  45 100 CALM      30.35F FOG
WORTHINGTON    CLEAR     42  41  96 NW3       30.35F
JACKSON        CLEAR     41  39  93 CALM      30.35F FOG
TRACY          CLEAR     46  46  97 CALM      30.36F
$$
MNZ065>067-074>077-082>085-091>093-301100-
   South Central Minnesota

CITY           SKY/WX    TMP DP  RH WIND       PRES   REMARKS
MANKATO        CLEAR     53  51  93 E5        30.35F
NEW ULM        CLEAR     48  48 100 CALM      30.35F
ST JAMES       CLEAR     43  43 100 CALM      30.36S FOG
GLENCOE        CLEAR     48  48 100 CALM      30.36F FOG
FARIBAULT      FOG       45  43  93 CALM      30.36S VSB 1/4
OWATONNA       CLEAR     50  46  87 E5        30.36S
WASECA         CLEAR     52  50  93 NE6       30.36S
ALBERT LEA     CLEAR     48  48 100 CALM      30.35S
$$
MNZ078>079-086>088-094>096-301100-
   Southeast Minnesota

CITY           SKY/WX    TMP DP  RH WIND       PRES   REMARKS
ROCHESTER      CLEAR     50  49  96 N6        30.35S
RED WING       CLEAR     54  52  94 E5        30.36S
STANTON        FOG       43  42  95 CALM      30.36S VSB 1/4
DODGE CENTER   CLEAR     48  46  93 NE7       30.36S FOG
WINONA         CLEAR     50  46  87 CALM      30.35S
AUSTIN         CLEAR     48  46  93 N3        30.34S
PRESTON        CLEAR     49  47  93 N6        30.34S
$$
ABBREVIATIONS USED IN REMARKS
   TC - TEMPERATURES IN CELSIUS
  WCI - WIND CHILL INDEX
   HX - HEAT INDEX
  VSB - VISIBILITY
$$




USA.gov is the U.S. government's official web portal to all federal, state and local government web resources and services.